Flag for Germany Weather past 2 weeks in Alsfeld, Hesse, Germany

Now
51 °F

Overcast.


Feels Like: 51 °F
Forecast: 44 / 54 °F
Wind: 2 mph from Southeast

Location: Fritzlar

Current Time: Apr 26, 2015 at 2:27:06 AM

Latest Report: Apr 26, 2015 at 2:00 AM


Visibility: 9 mi

Pressure: 29.81 "Hg

Humidity: 90%

Dew point: 48 °F

Location of AlsfeldLocation

Historic Weather in Alsfeld — Graph

°F

Alsfeld temperature yesterday

Maximum temperature yesterday: 61 °F (at 12:00 PM)
Minimum temperature yesterday: 40 °F (at 6:00 AM)
Average temperature yesterday: 53 °F

Past Weeks' High & Low Weather Summary

 TemperatureHumidityPressure
High75 °F (Apr 15, 5:00 PM)96% (Apr 23, 6:00 AM)30.47 "Hg (Apr 23, 6:00 AM)
Low29 °F (Apr 19, 7:00 AM)23% (Apr 21, 7:00 PM)29.75 "Hg (Apr 25, 5:00 PM)
Average50 °F63%30.17 "Hg
* Reported Apr 11 1:00 AM — Apr 26 1:00 AM, Alsfeld, Weather by CustomWeather, © 2015

Note: Actual official high and low records may vary slightly from our data, if they occured in-between our weather recording intervals... More about our weather records

Advertising

Alsfeld weather history for previous 24 hours

 ConditionsComfort  
Time TempWeatherWind HumidityBarometerVisibility
1:00 AM
Sun, Apr 26
51 °FPassing clouds.3 mph92%29.81 "Hg11 mi
12:00 AM51 °FOvercast.1 mph92%29.81 "Hg16 mi
10:00 PM
Sat, Apr 25
53 °FOvercast.3 mph88%29.81 "Hg16 mi
9:00 PM55 °FOvercast.2 mph84%29.80 "Hg16 mi
8:00 PM57 °FOvercast.3 mph81%29.78 "Hg16 mi
7:00 PM57 °FLight rain. Overcast.5 mph80%29.77 "Hg12 mi
6:00 PM60 °FLight rain. Overcast.7 mph67%29.75 "Hg12 mi
5:00 PM61 °FOvercast.8 mph65%29.75 "Hg16 mi
4:00 PM61 °FOvercast.9 mph61%29.76 "Hg19 mi
3:00 PM60 °FOvercast.6 mph69%29.78 "Hg16 mi
2:00 PM57 °FLight rain. Overcast.6 mph70%29.80 "Hg12 mi
1:00 PM58 °FOvercast.10 mph63%29.81 "Hg12 mi
12:00 PM61 °FOvercast.6 mph54%29.80 "Hg16 mi
11:00 AM59 °FOvercast.6 mph52%29.80 "Hg16 mi
10:00 AM54 °FOvercast.N/A67%29.81 "Hg16 mi
9:00 AM50 °FOvercast.No wind75%29.82 "Hg14 mi
8:00 AM44 °FOvercast.N/A89%29.83 "Hg12 mi
7:00 AM41 °FOvercast.No wind91%29.84 "Hg11 mi
6:00 AM40 °FOvercast.No wind91%29.84 "Hg11 mi
5:00 AM41 °FPassing clouds.No wind88%29.84 "Hg8 mi
4:00 AM42 °FPassing clouds.No wind87%29.85 "Hg9 mi
3:00 AM42 °FPassing clouds.No wind86%29.85 "Hg9 mi
Weather by CustomWeather, © 2015

See weather overviewHow to use our weather pages